Weather History for Riga, Latvia

Change the Weather History Date:

Wednesday, December 11, 2013

  Actual Average Record
Temperature  
Mean Temperature 30 °F -  
Max Temperature 37 °F 32 °F 44 °F (2000)
Min Temperature 23 °F 23 °F 6 °F (2002)
Degree Days  
Heating Degree Days 35    
Moisture  
Dew Point 35 °F    
Average Humidity 99    
Maximum Humidity 100    
Minimum Humidity 93    
Precipitation  
Precipitation 0.31 in 0.06 in - ()
Sea Level Pressure  
Sea Level Pressure 30.22 in    
Wind  
Wind Speed 6 mph ()    
Max Wind Speed 12 mph    
Max Gust Speed -    
Visibility 5.0 miles    
Events Rain    
Averages and records for this station are not official NWS values.
T = Trace of Precipitation, MM = Missing Value Source: Averaged Metar Reports

Daily Weather History Graph

Daily Weather History Graph

Search for Another Location

Airport:

Trip Planner

Search our weather history database for the weather conditions in past years. The results will help you decide how hot, cold, wet, or windy it might be!

Date:

Astronomy

Dec. 11, 2013 Rise Set
Actual Time 8:51 AM EET 3:43 PM EET
Civil Twilight 8:02 AM EET 4:31 PM EET
Nautical Twilight 7:12 AM EET 5:22 PM EET
Astronomical Twilight 6:25 AM EET 6:08 PM EET
Moon 1:02 PM EET (12/11) 1:51 AM EET (12/11)
Length of Visible Light 8h 29m
Length of Day
6h 51m
Waxing Gibbous, 69% of the Moon is Illuminated
Dec 11
Waxing Gibbous
Dec 17
Full
Dec 25
Last Quarter
Jan 1
New
Jan 8
First Quarter

Hourly Weather History & Observations

Time (EET) Temp. Windchill Dew Point Humidity Pressure Visibility Wind Dir Wind Speed Gust Speed Precip Events Conditions
12:20 AM 28.4 °F 18.5 °F 28.4 °F 100% 30.30 in 4.3 mi South 11.5 mph - N/A   Light Freezing Rain
12:50 AM 30.2 °F 20.8 °F 30.2 °F 100% 30.27 in 3.7 mi South 11.5 mph - N/A   Overcast
1:20 AM 30.2 °F 20.8 °F 30.2 °F 100% 30.27 in 6.2 mi South 11.5 mph - N/A   Overcast
1:50 AM 32.0 °F 24.2 °F 32.0 °F 100% 30.24 in 4.3 mi South 9.2 mph - N/A   Overcast
2:00 AM 32 °F - 31 °F 97% 30.26 in 4 mi South 8.9 mph - -   Mist
2:20 AM 32.0 °F 24.8 °F 32.0 °F 100% 30.24 in 3.7 mi SSW 8.1 mph - N/A   Overcast
2:50 AM 32.0 °F 25.6 °F 32.0 °F 100% 30.24 in - South 6.9 mph - N/A   Overcast
3:20 AM 32.0 °F 24.8 °F 32.0 °F 100% 30.24 in 1.6 mi SSW 8.1 mph - N/A   Overcast
3:50 AM 32.0 °F 25.6 °F 32.0 °F 100% 30.21 in 0.9 mi SSW 6.9 mph - N/A   Overcast
4:20 AM 33.8 °F 30.8 °F 33.8 °F 100% 30.24 in 1.2 mi SSW 3.5 mph - N/A   Overcast
4:50 AM 33.8 °F 30.8 °F 33.8 °F 100% 30.24 in 2.2 mi SSW 3.5 mph - N/A   Overcast
5:00 AM 33 °F - 33 °F 100% 30.25 in 2 mi South 4.5 mph - - Rain Drizzle
5:20 AM 33.8 °F 28.6 °F 33.8 °F 100% 30.21 in 3.1 mi SSW 5.8 mph - N/A Rain Light Rain
5:50 AM 33.8 °F 27.7 °F 33.8 °F 100% 30.21 in 4.3 mi SSW 6.9 mph - N/A Rain Light Rain
6:20 AM 33.8 °F 29.6 °F 33.8 °F 100% 30.21 in - SSW 4.6 mph - N/A   Overcast
6:50 AM 33.8 °F 29.6 °F 33.8 °F 100% 30.21 in - SSW 4.6 mph - N/A   Overcast
7:20 AM 33.8 °F 29.6 °F 33.8 °F 100% 30.21 in 3.1 mi SSW 4.6 mph - N/A   Overcast
7:50 AM 33.8 °F 28.6 °F 33.8 °F 100% 30.21 in 5.0 mi SSW 5.8 mph - N/A   Overcast
8:00 AM 34 °F - 34 °F 100% 30.23 in 3 mi SSW 6.7 mph - -   Mist
8:20 AM 33.8 °F 28.6 °F 33.8 °F 100% 30.21 in 4.3 mi SSW 5.8 mph - N/A   Overcast
8:50 AM 35.6 °F 30.7 °F 35.6 °F 100% 30.21 in 5.0 mi SSW 5.8 mph - N/A   Overcast
9:20 AM 35.6 °F 30.7 °F 35.6 °F 100% 30.21 in 5.6 mi SSW 5.8 mph - N/A   Overcast
9:50 AM 35.6 °F 31.7 °F 35.6 °F 100% 30.21 in 5.6 mi SW 4.6 mph - N/A   Overcast
10:20 AM 35.6 °F 32.8 °F 35.6 °F 100% 30.21 in 5.6 mi SW 3.5 mph - N/A   Overcast
10:50 AM 35.6 °F 31.7 °F 35.6 °F 100% 30.21 in 5.6 mi South 4.6 mph - N/A   Overcast
11:00 AM 36 °F - 36 °F 100% 30.24 in 6 mi 4.5 mph - -   Mist
11:20 AM 35.6 °F 30.7 °F 35.6 °F 100% 30.24 in 5.0 mi South 5.8 mph - N/A   Overcast
11:50 AM 37.4 °F 33.8 °F 37.4 °F 100% 30.21 in 5.6 mi SSW 4.6 mph - N/A   Overcast
12:20 PM 37.4 °F 34.9 °F 37.4 °F 100% 30.21 in 6.2 mi SSW 3.5 mph - N/A   Overcast
12:50 PM 37.4 °F 33.8 °F 35.6 °F 93% 30.21 in 6.2 mi SSW 4.6 mph - N/A   Overcast
1:20 PM 35.6 °F 32.8 °F 35.6 °F 100% 30.21 in 6.2 mi SSW 3.5 mph - N/A   Overcast
1:50 PM 35.6 °F 31.7 °F 35.6 °F 100% 30.21 in 6.2 mi SSW 4.6 mph - N/A   Overcast
2:00 PM 36 °F - 36 °F 100% 30.23 in 6 mi 4.5 mph - -  
2:20 PM 37.4 °F 34.9 °F 35.6 °F 93% 30.21 in 6.2 mi SW 3.5 mph - N/A   Overcast
2:50 PM 37.4 °F 34.9 °F 37.4 °F 100% 30.21 in 6.2 mi SSW 3.5 mph - N/A   Overcast
3:20 PM 37.4 °F 32.8 °F 35.6 °F 93% 30.21 in 6.2 mi SSW 5.8 mph - N/A   Overcast
3:50 PM 35.6 °F 32.8 °F 35.6 °F 100% 30.21 in 6.2 mi SSW 3.5 mph - N/A   Overcast
4:20 PM 35.6 °F 30.7 °F 35.6 °F 100% 30.21 in 6.2 mi SSW 5.8 mph - N/A   Overcast
4:50 PM 35.6 °F 30.7 °F 35.6 °F 100% 30.21 in 6.2 mi SSW 5.8 mph - N/A   Overcast
5:00 PM 36 °F - 36 °F 99% 30.23 in 6 mi SSW 4.5 mph - -  
5:20 PM 35.6 °F 30.7 °F 35.6 °F 100% 30.21 in 6.2 mi SSW 5.8 mph - N/A   Overcast
5:50 PM 35.6 °F 30.7 °F 35.6 °F 100% 30.21 in 6.2 mi SSW 5.8 mph - N/A   Overcast
6:20 PM 35.6 °F 31.7 °F 35.6 °F 100% 30.21 in 6.2 mi SSW 4.6 mph - N/A   Overcast
6:50 PM 35.6 °F 30.7 °F 35.6 °F 100% 30.21 in 6.2 mi South 5.8 mph - N/A   Overcast
7:20 PM 35.6 °F 30.7 °F 35.6 °F 100% 30.21 in 5.6 mi SSW 5.8 mph - N/A   Overcast
7:50 PM 35.6 °F 32.8 °F 35.6 °F 100% 30.21 in 6.2 mi SSW 3.5 mph - N/A   Overcast
8:00 PM 36 °F - 36 °F 99% 30.24 in 6 mi 4.5 mph - -   Mist
8:20 PM 35.6 °F 30.7 °F 35.6 °F 100% 30.21 in 5.6 mi SSW 5.8 mph - N/A   Overcast
8:50 PM 35.6 °F 30.7 °F 35.6 °F 100% 30.21 in 5.0 mi SSW 5.8 mph - N/A   Overcast
9:20 PM 35.6 °F 29.9 °F 35.6 °F 100% 30.21 in 5.6 mi SSW 6.9 mph - N/A   Overcast
9:50 PM 35.6 °F 29.9 °F 35.6 °F 100% 30.21 in 5.6 mi SSW 6.9 mph - N/A   Overcast
10:20 PM 37.4 °F 32.1 °F 35.6 °F 93% 30.21 in 5.6 mi SSW 6.9 mph - N/A   Overcast
10:50 PM 37.4 °F 32.8 °F 37.4 °F 100% 30.21 in 5.6 mi SSW 5.8 mph - N/A   Overcast
11:00 PM 37 °F - 37 °F 98% 30.22 in 6 mi SSW 6.7 mph - -   Mist
11:20 PM 37.4 °F 32.8 °F 35.6 °F 93% 30.21 in 5.0 mi SSW 5.8 mph - N/A   Overcast
11:50 PM 35.6 °F 29.9 °F 35.6 °F 100% 30.21 in 4.3 mi SSW 6.9 mph - N/A   Overcast